Year,Month,Day,Hour,Minute,Value (Times are PST for temperature in C)
2017,10,22,00,00,8.90
2017,10,22,00,01,8.90
2017,10,22,00,02,8.90
2017,10,22,00,03,8.90
2017,10,22,00,04,8.90
2017,10,22,00,05,8.90
2017,10,22,00,06,8.90
2017,10,22,00,07,8.90
2017,10,22,00,08,8.80
2017,10,22,00,09,8.80
2017,10,22,00,10,8.80
2017,10,22,00,11,8.80
2017,10,22,00,12,8.80
2017,10,22,00,13,8.80
2017,10,22,00,14,8.80
2017,10,22,00,15,8.80
2017,10,22,00,16,8.80
2017,10,22,00,17,8.80
2017,10,22,00,18,8.80
2017,10,22,00,19,8.80
2017,10,22,00,20,8.80
2017,10,22,00,21,8.80
2017,10,22,00,22,8.80
2017,10,22,00,23,8.80
2017,10,22,00,24,8.80
2017,10,22,00,25,8.80
2017,10,22,00,26,8.70
2017,10,22,00,27,8.70
2017,10,22,00,28,8.70
2017,10,22,00,29,8.70
2017,10,22,00,30,8.70
2017,10,22,00,31,8.70
2017,10,22,00,32,8.70
2017,10,22,00,33,8.70
2017,10,22,00,34,8.70
2017,10,22,00,35,8.60
2017,10,22,00,36,8.60
2017,10,22,00,37,8.60
2017,10,22,00,38,8.60
2017,10,22,00,39,8.60
2017,10,22,00,40,8.60
2017,10,22,00,41,8.50
2017,10,22,00,42,8.50
2017,10,22,00,43,8.50
2017,10,22,00,44,8.50
2017,10,22,00,45,8.50
2017,10,22,00,46,8.50
2017,10,22,00,47,8.50
2017,10,22,00,48,8.50
2017,10,22,00,49,8.50
2017,10,22,00,50,8.50
2017,10,22,00,51,8.50
2017,10,22,00,52,8.50
2017,10,22,00,53,8.50
2017,10,22,00,54,8.50
2017,10,22,00,55,8.40
2017,10,22,00,56,8.40
2017,10,22,00,57,8.40
2017,10,22,00,58,8.40
2017,10,22,00,59,8.40
2017,10,22,01,00,8.40
2017,10,22,01,01,8.40
2017,10,22,01,02,8.40
2017,10,22,01,03,8.40
2017,10,22,01,04,8.40
2017,10,22,01,05,8.40
2017,10,22,01,06,8.40
2017,10,22,01,07,8.40
2017,10,22,01,08,8.40
2017,10,22,01,09,8.40
2017,10,22,01,10,8.40
2017,10,22,01,11,8.40
2017,10,22,01,12,8.40
2017,10,22,01,13,8.40
2017,10,22,01,14,8.40
2017,10,22,01,15,8.40
2017,10,22,01,16,8.40
2017,10,22,01,17,8.40
2017,10,22,01,18,8.40
2017,10,22,01,19,8.40
2017,10,22,01,20,8.40
2017,10,22,01,21,8.40
2017,10,22,01,22,8.40
2017,10,22,01,23,8.40
2017,10,22,01,24,8.40
2017,10,22,01,25,8.40
2017,10,22,01,26,8.40
2017,10,22,01,27,8.40
2017,10,22,01,28,8.40
2017,10,22,01,29,8.40
2017,10,22,01,30,8.40
2017,10,22,01,31,8.40
2017,10,22,01,32,8.40
2017,10,22,01,33,8.40
2017,10,22,01,34,8.40
2017,10,22,01,35,8.40
2017,10,22,01,36,8.40
2017,10,22,01,37,8.40
2017,10,22,01,38,8.40
2017,10,22,01,39,8.40
2017,10,22,01,40,8.40
2017,10,22,01,41,8.40
2017,10,22,01,42,8.40
2017,10,22,01,43,8.40
2017,10,22,01,44,8.40
2017,10,22,01,45,8.40
2017,10,22,01,46,8.40
2017,10,22,01,47,8.40
2017,10,22,01,48,8.40
2017,10,22,01,49,8.40
2017,10,22,01,50,8.40
2017,10,22,01,51,8.40
2017,10,22,01,52,8.40
2017,10,22,01,53,8.40
2017,10,22,01,54,8.30
2017,10,22,01,55,8.30
2017,10,22,01,56,8.30
2017,10,22,01,57,8.30
2017,10,22,01,58,8.40
2017,10,22,01,59,8.40
2017,10,22,02,00,8.30
2017,10,22,02,01,8.30
2017,10,22,02,02,8.30
2017,10,22,02,03,8.30
2017,10,22,02,04,8.30
2017,10,22,02,05,8.30
2017,10,22,02,06,8.30
2017,10,22,02,07,8.30
2017,10,22,02,08,8.30
2017,10,22,02,09,8.30
2017,10,22,02,10,8.30
2017,10,22,02,11,8.30
2017,10,22,02,12,8.30
2017,10,22,02,13,8.20
2017,10,22,02,14,8.20
2017,10,22,02,15,8.20
2017,10,22,02,16,8.20
2017,10,22,02,17,8.20
2017,10,22,02,18,8.20
2017,10,22,02,19,8.20
2017,10,22,02,20,8.20
2017,10,22,02,21,8.20
2017,10,22,02,22,8.20
2017,10,22,02,23,8.20
2017,10,22,02,24,8.10
2017,10,22,02,25,8.10
2017,10,22,02,26,8.10
2017,10,22,02,27,8.10
2017,10,22,02,28,8.10
2017,10,22,02,29,8.00
2017,10,22,02,30,8.00
2017,10,22,02,31,8.00
2017,10,22,02,32,7.90
2017,10,22,02,33,7.90
2017,10,22,02,34,7.90
2017,10,22,02,35,7.90
2017,10,22,02,36,7.80
2017,10,22,02,37,7.80
2017,10,22,02,38,7.80
2017,10,22,02,39,7.80
2017,10,22,02,40,7.80
2017,10,22,02,41,7.80
2017,10,22,02,42,7.80
2017,10,22,02,43,7.80
2017,10,22,02,44,7.70
2017,10,22,02,45,7.70
2017,10,22,02,46,7.70
2017,10,22,02,47,7.70
2017,10,22,02,48,7.70
2017,10,22,02,49,7.70
2017,10,22,02,50,7.60
2017,10,22,02,51,7.60
2017,10,22,02,52,7.60
2017,10,22,02,53,7.60
2017,10,22,02,54,7.60
2017,10,22,02,55,7.60
2017,10,22,02,56,7.50
2017,10,22,02,57,7.50
2017,10,22,02,58,7.50
2017,10,22,02,59,7.50
2017,10,22,03,00,7.40
2017,10,22,03,01,7.40
2017,10,22,03,02,7.40
2017,10,22,03,03,7.40
2017,10,22,03,04,7.30
2017,10,22,03,05,7.30
2017,10,22,03,06,7.30
2017,10,22,03,07,7.30
2017,10,22,03,08,7.30
2017,10,22,03,09,7.20
2017,10,22,03,10,7.20
2017,10,22,03,11,7.20
2017,10,22,03,12,7.20
2017,10,22,03,13,7.20
2017,10,22,03,14,7.20
2017,10,22,03,15,7.10
2017,10,22,03,16,7.10
2017,10,22,03,17,7.10
2017,10,22,03,18,7.10
2017,10,22,03,19,7.10
2017,10,22,03,20,7.10
2017,10,22,03,21,7.00
2017,10,22,03,22,7.00
2017,10,22,03,23,7.00
2017,10,22,03,24,7.00
2017,10,22,03,25,7.00
2017,10,22,03,26,6.90
2017,10,22,03,27,6.90
2017,10,22,03,28,6.90
2017,10,22,03,29,6.90
2017,10,22,03,30,6.90
2017,10,22,03,31,7.00
2017,10,22,03,32,7.00
2017,10,22,03,33,7.00
2017,10,22,03,34,7.10
2017,10,22,03,35,7.10
2017,10,22,03,36,7.10
2017,10,22,03,37,7.20
2017,10,22,03,38,7.20
2017,10,22,03,39,7.20
2017,10,22,03,40,7.10
2017,10,22,03,41,7.10
2017,10,22,03,42,7.10
2017,10,22,03,43,7.10
2017,10,22,03,44,7.10
2017,10,22,03,45,7.10
2017,10,22,03,46,7.10
2017,10,22,03,47,7.10
2017,10,22,03,48,7.10
2017,10,22,03,49,7.10
2017,10,22,03,50,7.10
2017,10,22,03,51,7.10
2017,10,22,03,52,7.10
2017,10,22,03,53,7.10
2017,10,22,03,54,7.10
2017,10,22,03,55,7.10
2017,10,22,03,56,7.10
2017,10,22,03,57,7.10
2017,10,22,03,58,7.10
2017,10,22,03,59,7.10
2017,10,22,04,00,7.10
2017,10,22,04,01,7.20
2017,10,22,04,02,7.20
2017,10,22,04,03,7.20
2017,10,22,04,04,7.20
2017,10,22,04,05,7.20
2017,10,22,04,06,7.20
2017,10,22,04,07,7.20
2017,10,22,04,08,7.20
2017,10,22,04,09,7.20
2017,10,22,04,10,7.20
2017,10,22,04,11,7.20
2017,10,22,04,12,7.20
2017,10,22,04,13,7.20
2017,10,22,04,14,7.20
2017,10,22,04,15,7.20
2017,10,22,04,16,7.20
2017,10,22,04,17,7.20
2017,10,22,04,18,7.20
2017,10,22,04,19,7.20
2017,10,22,04,20,7.20
2017,10,22,04,21,7.20
2017,10,22,04,22,7.20
2017,10,22,04,23,7.30
2017,10,22,04,24,7.30
2017,10,22,04,25,7.30
2017,10,22,04,26,7.30
2017,10,22,04,27,7.30
2017,10,22,04,28,7.30
2017,10,22,04,29,7.30
2017,10,22,04,30,7.30
2017,10,22,04,31,7.30
2017,10,22,04,32,7.30
2017,10,22,04,33,7.30
2017,10,22,04,34,7.30
2017,10,22,04,35,7.30
2017,10,22,04,36,7.30
2017,10,22,04,37,7.30
2017,10,22,04,38,7.30
2017,10,22,04,39,7.30
2017,10,22,04,40,7.30
2017,10,22,04,41,7.30
2017,10,22,04,42,7.30
2017,10,22,04,43,7.30
2017,10,22,04,44,7.30
2017,10,22,04,45,7.30
2017,10,22,04,46,7.30
2017,10,22,04,47,7.30
2017,10,22,04,48,7.30
2017,10,22,04,49,7.30
2017,10,22,04,50,7.30
2017,10,22,04,51,7.20
2017,10,22,04,52,7.20
2017,10,22,04,53,7.20
2017,10,22,04,54,7.20
2017,10,22,04,55,7.20
2017,10,22,04,56,7.20
2017,10,22,04,57,7.20
2017,10,22,04,58,7.20
2017,10,22,04,59,7.20
2017,10,22,05,00,7.10
2017,10,22,05,01,7.10
2017,10,22,05,02,7.10
2017,10,22,05,03,7.10
2017,10,22,05,04,7.00
2017,10,22,05,05,7.00
2017,10,22,05,06,7.00
2017,10,22,05,07,6.90
2017,10,22,05,08,6.90
2017,10,22,05,09,6.90
2017,10,22,05,10,6.90
2017,10,22,05,11,6.90
2017,10,22,05,12,6.90
2017,10,22,05,13,6.90
2017,10,22,05,14,6.90
2017,10,22,05,15,6.90
2017,10,22,05,16,6.90
2017,10,22,05,17,6.90
2017,10,22,05,18,6.90
2017,10,22,05,19,6.90
2017,10,22,05,20,6.90
2017,10,22,05,21,6.90
2017,10,22,05,22,6.90
2017,10,22,05,23,7.00
2017,10,22,05,24,7.00
2017,10,22,05,25,7.00
2017,10,22,05,26,7.00
2017,10,22,05,27,7.00
2017,10,22,05,28,7.00
2017,10,22,05,29,7.00
2017,10,22,05,30,7.00
2017,10,22,05,31,7.00
2017,10,22,05,32,7.00
2017,10,22,05,33,7.00
2017,10,22,05,34,7.00
2017,10,22,05,35,7.00
2017,10,22,05,36,7.00
2017,10,22,05,37,7.00
2017,10,22,05,38,6.90
2017,10,22,05,39,6.90
2017,10,22,05,40,6.90
2017,10,22,05,41,6.90
2017,10,22,05,42,6.90
2017,10,22,05,43,6.90
2017,10,22,05,44,6.80
2017,10,22,05,45,6.80
2017,10,22,05,46,6.80
2017,10,22,05,47,6.80
2017,10,22,05,48,6.80
2017,10,22,05,49,6.80
2017,10,22,05,50,6.80
2017,10,22,05,51,6.80
2017,10,22,05,52,6.80
2017,10,22,05,53,6.80
2017,10,22,05,54,6.80
2017,10,22,05,55,6.80
2017,10,22,05,56,6.80
2017,10,22,05,57,6.80
2017,10,22,05,58,6.80
2017,10,22,05,59,6.80
2017,10,22,06,00,6.80
2017,10,22,06,01,6.80
2017,10,22,06,02,6.80
2017,10,22,06,03,6.80
2017,10,22,06,04,6.80
2017,10,22,06,05,6.80
2017,10,22,06,06,6.80
2017,10,22,06,07,6.90
2017,10,22,06,08,6.90
2017,10,22,06,09,6.90
2017,10,22,06,10,7.00
2017,10,22,06,11,7.00
2017,10,22,06,12,7.10
2017,10,22,06,13,7.10
2017,10,22,06,14,7.10
2017,10,22,06,15,7.20
2017,10,22,06,16,7.20
2017,10,22,06,17,7.20
2017,10,22,06,18,7.20
2017,10,22,06,19,7.20
2017,10,22,06,20,7.20
2017,10,22,06,21,7.20
2017,10,22,06,22,7.20
2017,10,22,06,23,7.20
2017,10,22,06,24,7.20
2017,10,22,06,25,7.20
2017,10,22,06,26,7.20
2017,10,22,06,27,7.20
2017,10,22,06,28,7.20
2017,10,22,06,29,7.20
2017,10,22,06,30,7.20
2017,10,22,06,31,7.20
2017,10,22,06,32,7.10
2017,10,22,06,33,7.10
2017,10,22,06,34,7.10
2017,10,22,06,35,7.10
2017,10,22,06,36,7.00
2017,10,22,06,37,7.00
2017,10,22,06,38,7.00
2017,10,22,06,39,7.00
2017,10,22,06,40,6.90
2017,10,22,06,41,6.90
2017,10,22,06,42,6.90
2017,10,22,06,43,6.90
2017,10,22,06,44,6.90
2017,10,22,06,45,6.80
2017,10,22,06,46,6.80
2017,10,22,06,47,6.80
2017,10,22,06,48,6.80
2017,10,22,06,49,6.80
2017,10,22,06,50,6.80
2017,10,22,06,51,6.80
2017,10,22,06,52,6.80
2017,10,22,06,53,6.70
2017,10,22,06,54,6.70
2017,10,22,06,55,6.70
2017,10,22,06,56,6.70
2017,10,22,06,57,6.70
2017,10,22,06,58,6.60
2017,10,22,06,59,6.60
2017,10,22,07,00,6.50
2017,10,22,07,01,6.50
2017,10,22,07,02,6.50
2017,10,22,07,03,6.40
2017,10,22,07,04,6.40
2017,10,22,07,05,6.40
2017,10,22,07,06,6.40
2017,10,22,07,07,6.30
2017,10,22,07,08,6.30
2017,10,22,07,09,6.30
2017,10,22,07,10,6.30
2017,10,22,07,11,6.30
2017,10,22,07,12,6.20
2017,10,22,07,13,6.20
2017,10,22,07,14,6.20
2017,10,22,07,15,6.20
2017,10,22,07,16,6.10
2017,10,22,07,17,6.10
2017,10,22,07,18,6.10
2017,10,22,07,19,6.00
2017,10,22,07,20,6.00
2017,10,22,07,21,6.00
2017,10,22,07,22,5.90
2017,10,22,07,23,5.90
2017,10,22,07,24,5.90
2017,10,22,07,25,5.90
2017,10,22,07,26,5.90
2017,10,22,07,27,5.90
2017,10,22,07,28,5.80
2017,10,22,07,29,5.80
2017,10,22,07,30,5.80
2017,10,22,07,31,5.80
2017,10,22,07,32,5.80
2017,10,22,07,33,5.80
2017,10,22,07,34,5.80
2017,10,22,07,35,5.80
2017,10,22,07,36,5.90
2017,10,22,07,37,5.80
2017,10,22,07,38,5.80
2017,10,22,07,39,5.90
2017,10,22,07,40,5.80
2017,10,22,07,41,5.80
2017,10,22,07,42,5.80
2017,10,22,07,43,5.80
2017,10,22,07,44,5.80
2017,10,22,07,45,5.80
2017,10,22,07,46,5.80
2017,10,22,07,47,5.80
2017,10,22,07,48,5.80
2017,10,22,07,49,5.80
2017,10,22,07,50,5.80
2017,10,22,07,51,5.80
2017,10,22,07,52,5.80
2017,10,22,07,53,5.80
2017,10,22,07,54,5.70
2017,10,22,07,55,5.70
2017,10,22,07,56,5.70
2017,10,22,07,57,5.70
2017,10,22,07,58,5.70
2017,10,22,07,59,5.70
2017,10,22,08,00,5.60
2017,10,22,08,01,5.60
2017,10,22,08,02,5.60
2017,10,22,08,03,5.60
2017,10,22,08,04,5.60
2017,10,22,08,05,5.60
2017,10,22,08,06,5.60
2017,10,22,08,07,5.60
2017,10,22,08,08,5.60
2017,10,22,08,09,5.50
2017,10,22,08,10,5.50
2017,10,22,08,11,5.50
2017,10,22,08,12,5.50
2017,10,22,08,13,5.50
2017,10,22,08,14,5.60
2017,10,22,08,15,5.60
2017,10,22,08,16,5.60
2017,10,22,08,17,5.60
2017,10,22,08,18,5.60
2017,10,22,08,19,5.60
2017,10,22,08,20,5.60
2017,10,22,08,21,5.60
2017,10,22,08,22,5.60
2017,10,22,08,23,5.60
2017,10,22,08,24,5.60
2017,10,22,08,25,5.60
2017,10,22,08,26,5.60
2017,10,22,08,27,5.60
2017,10,22,08,28,5.60
2017,10,22,08,29,5.60
2017,10,22,08,30,5.60
2017,10,22,08,31,5.60
2017,10,22,08,32,5.60
2017,10,22,08,33,5.70
2017,10,22,08,34,5.70
2017,10,22,08,35,5.70
2017,10,22,08,36,5.70
2017,10,22,08,37,5.70
2017,10,22,08,38,5.70
2017,10,22,08,39,5.80
2017,10,22,08,40,5.80
2017,10,22,08,41,5.80
2017,10,22,08,42,5.80
2017,10,22,08,43,5.80
2017,10,22,08,44,5.90
2017,10,22,08,45,5.90
2017,10,22,08,46,5.90
2017,10,22,08,47,6.00
2017,10,22,08,48,6.00
2017,10,22,08,49,6.10
2017,10,22,08,50,6.10
2017,10,22,08,51,6.10
2017,10,22,08,52,6.10
2017,10,22,08,53,6.10
2017,10,22,08,54,6.10
2017,10,22,08,55,6.10
2017,10,22,08,56,6.10
2017,10,22,08,57,6.20
2017,10,22,08,58,6.20
2017,10,22,08,59,6.20
2017,10,22,09,00,6.20
2017,10,22,09,01,6.20
2017,10,22,09,02,6.20
2017,10,22,09,03,6.30
2017,10,22,09,04,6.30
2017,10,22,09,05,6.30
2017,10,22,09,06,6.30
2017,10,22,09,07,6.30
2017,10,22,09,08,6.30
2017,10,22,09,09,6.40
2017,10,22,09,10,6.40
2017,10,22,09,11,6.40
2017,10,22,09,12,6.50
2017,10,22,09,13,6.50
2017,10,22,09,14,6.60
2017,10,22,09,15,6.60
2017,10,22,09,16,6.60
2017,10,22,09,17,6.70
2017,10,22,09,18,6.70
2017,10,22,09,19,6.70
2017,10,22,09,20,6.80
2017,10,22,09,21,6.80
2017,10,22,09,22,6.80
2017,10,22,09,23,6.90
2017,10,22,09,24,6.90
2017,10,22,09,25,6.90
2017,10,22,09,26,7.00
2017,10,22,09,27,7.00
2017,10,22,09,28,7.00
2017,10,22,09,29,7.10
2017,10,22,09,30,7.10
2017,10,22,09,31,7.10
2017,10,22,09,32,7.10
2017,10,22,09,33,7.10
2017,10,22,09,34,7.20
2017,10,22,09,35,7.20
2017,10,22,09,36,7.20
2017,10,22,09,37,7.20
2017,10,22,09,38,7.30
2017,10,22,09,39,7.30
2017,10,22,09,40,7.30
2017,10,22,09,41,7.40
2017,10,22,09,42,7.40
2017,10,22,09,43,7.50
2017,10,22,09,44,7.50
2017,10,22,09,45,7.60
2017,10,22,09,46,7.60
2017,10,22,09,47,7.70
2017,10,22,09,48,7.70
2017,10,22,09,49,7.80
2017,10,22,09,50,7.80
2017,10,22,09,51,7.90
2017,10,22,09,52,7.90
2017,10,22,09,53,8.00
2017,10,22,09,54,8.00
2017,10,22,09,55,8.10
2017,10,22,09,56,8.10
2017,10,22,09,57,8.10
2017,10,22,09,58,8.20
2017,10,22,09,59,8.20
2017,10,22,10,00,8.20
2017,10,22,10,01,8.20
2017,10,22,10,02,8.20
2017,10,22,10,03,8.20
2017,10,22,10,04,8.30
2017,10,22,10,05,8.30
2017,10,22,10,06,8.30
2017,10,22,10,07,8.30
2017,10,22,10,08,8.30
2017,10,22,10,09,8.40
2017,10,22,10,10,8.40
2017,10,22,10,11,8.40
2017,10,22,10,12,8.50
2017,10,22,10,13,8.50
2017,10,22,10,14,8.50
2017,10,22,10,15,8.60
2017,10,22,10,16,8.60
2017,10,22,10,17,8.60
2017,10,22,10,18,8.60
2017,10,22,10,19,8.60
2017,10,22,10,20,8.60
2017,10,22,10,21,8.60
2017,10,22,10,22,8.60
2017,10,22,10,23,8.60
2017,10,22,10,24,8.60
2017,10,22,10,25,8.60
2017,10,22,10,26,8.70
2017,10,22,10,27,8.70
2017,10,22,10,28,8.60
2017,10,22,10,29,8.60
2017,10,22,10,30,8.60
2017,10,22,10,31,8.70
2017,10,22,10,32,8.70
2017,10,22,10,33,8.70
2017,10,22,10,34,8.70
2017,10,22,10,35,8.70
2017,10,22,10,36,8.70
2017,10,22,10,37,8.70
2017,10,22,10,38,8.80
2017,10,22,10,39,8.80
2017,10,22,10,40,8.80
2017,10,22,10,41,8.80
2017,10,22,10,42,8.80
2017,10,22,10,43,8.90
2017,10,22,10,44,8.90
2017,10,22,10,45,8.90
2017,10,22,10,46,8.90
2017,10,22,10,47,9.00
2017,10,22,10,48,9.00
2017,10,22,10,49,9.00
2017,10,22,10,50,9.00
2017,10,22,10,51,9.10
2017,10,22,10,52,9.10
2017,10,22,10,53,9.10
2017,10,22,10,54,9.10
2017,10,22,10,55,9.10
2017,10,22,10,56,9.20
2017,10,22,10,57,9.20
2017,10,22,10,58,9.20
2017,10,22,10,59,9.30
2017,10,22,11,00,9.30
2017,10,22,11,01,9.40
2017,10,22,11,02,9.40
2017,10,22,11,03,9.50
2017,10,22,11,04,9.50
2017,10,22,11,05,9.60
2017,10,22,11,06,9.70
2017,10,22,11,07,9.80
2017,10,22,11,08,9.80
2017,10,22,11,09,9.90
2017,10,22,11,10,10.00
2017,10,22,11,11,10.00
2017,10,22,11,12,10.10
2017,10,22,11,13,10.20
2017,10,22,11,14,10.20
2017,10,22,11,15,10.30
2017,10,22,11,16,10.30
2017,10,22,11,17,10.40
2017,10,22,11,18,10.40
2017,10,22,11,19,10.50
2017,10,22,11,20,10.50
2017,10,22,11,21,10.60
2017,10,22,11,22,10.60
2017,10,22,11,23,10.60
2017,10,22,11,24,10.60
2017,10,22,11,25,10.60
2017,10,22,11,26,10.60
2017,10,22,11,27,10.60
2017,10,22,11,28,10.70
2017,10,22,11,29,10.70
2017,10,22,11,30,10.70
2017,10,22,11,31,10.70
2017,10,22,11,32,10.70
2017,10,22,11,33,10.70
2017,10,22,11,34,10.70
2017,10,22,11,35,10.70
2017,10,22,11,36,10.80
2017,10,22,11,37,10.70
2017,10,22,11,38,10.70
2017,10,22,11,39,10.70
2017,10,22,11,40,10.70
2017,10,22,11,41,10.70
2017,10,22,11,42,10.70
2017,10,22,11,43,10.70
2017,10,22,11,44,10.70
2017,10,22,11,45,10.70
2017,10,22,11,46,10.70
2017,10,22,11,47,10.70
2017,10,22,11,48,10.70
2017,10,22,11,49,10.70
2017,10,22,11,50,10.70
2017,10,22,11,51,10.70
2017,10,22,11,52,10.70
2017,10,22,11,53,10.70
2017,10,22,11,54,10.80
2017,10,22,11,55,10.80
2017,10,22,11,56,10.80
2017,10,22,11,57,10.80
2017,10,22,11,58,10.80
2017,10,22,11,59,10.80
2017,10,22,12,00,10.80
2017,10,22,12,01,10.80
2017,10,22,12,02,10.80
2017,10,22,12,03,10.80
2017,10,22,12,04,10.80
2017,10,22,12,05,10.80
2017,10,22,12,06,10.80
2017,10,22,12,07,10.80
2017,10,22,12,08,10.80
2017,10,22,12,09,10.80
2017,10,22,12,10,10.80
2017,10,22,12,11,10.80
2017,10,22,12,12,10.80
2017,10,22,12,13,10.80
2017,10,22,12,14,10.80
2017,10,22,12,15,10.80
2017,10,22,12,16,10.80
2017,10,22,12,17,10.80
2017,10,22,12,18,10.80
2017,10,22,12,19,10.80
2017,10,22,12,20,10.80
2017,10,22,12,21,10.70
2017,10,22,12,22,10.70
2017,10,22,12,23,10.60
2017,10,22,12,24,10.60
2017,10,22,12,25,10.60
2017,10,22,12,26,10.50
2017,10,22,12,27,10.60
2017,10,22,12,28,10.60
2017,10,22,12,29,10.60
2017,10,22,12,30,10.70
2017,10,22,12,31,10.70
2017,10,22,12,32,10.80
2017,10,22,12,33,10.80
2017,10,22,12,34,10.80
2017,10,22,12,35,10.80
2017,10,22,12,36,10.80
2017,10,22,12,37,10.80
2017,10,22,12,38,10.90
2017,10,22,12,39,11.00
2017,10,22,12,40,11.00
2017,10,22,12,41,11.10
2017,10,22,12,42,11.20
2017,10,22,12,43,11.30
2017,10,22,12,44,11.30
2017,10,22,12,45,11.40
2017,10,22,12,46,11.40
2017,10,22,12,47,11.40
2017,10,22,12,48,11.40
2017,10,22,12,49,11.30
2017,10,22,12,50,11.30
2017,10,22,12,51,11.20
2017,10,22,12,52,11.20
2017,10,22,12,53,11.20
2017,10,22,12,54,11.20
2017,10,22,12,55,11.20
2017,10,22,12,56,11.10
2017,10,22,12,57,11.00
2017,10,22,12,58,11.00
2017,10,22,12,59,11.00
2017,10,22,13,00,10.90
2017,10,22,13,01,10.90
2017,10,22,13,02,10.90
2017,10,22,13,03,11.00
2017,10,22,13,04,11.00
2017,10,22,13,05,11.10
2017,10,22,13,06,11.20
2017,10,22,13,07,11.20
2017,10,22,13,08,11.30
2017,10,22,13,09,11.30
2017,10,22,13,10,11.30
2017,10,22,13,11,11.30
2017,10,22,13,12,11.40
2017,10,22,13,13,11.40
2017,10,22,13,14,11.40
2017,10,22,13,15,11.50
2017,10,22,13,16,11.50
2017,10,22,13,17,11.60
2017,10,22,13,18,11.60
2017,10,22,13,19,11.50
2017,10,22,13,20,11.50
2017,10,22,13,21,11.50
2017,10,22,13,22,11.50
2017,10,22,13,23,11.50
2017,10,22,13,24,11.40
2017,10,22,13,25,11.40
2017,10,22,13,26,11.50
2017,10,22,13,27,11.50
2017,10,22,13,28,11.50
2017,10,22,13,29,11.50
2017,10,22,13,30,11.50
2017,10,22,13,31,11.60
2017,10,22,13,32,11.50
2017,10,22,13,33,11.50
2017,10,22,13,34,11.40
2017,10,22,13,35,11.40
2017,10,22,13,36,11.40
2017,10,22,13,37,11.40
2017,10,22,13,38,11.30
2017,10,22,13,39,11.30
2017,10,22,13,40,11.30
2017,10,22,13,41,11.20
2017,10,22,13,42,11.20
2017,10,22,13,43,11.20
2017,10,22,13,44,11.20
2017,10,22,13,45,11.30
2017,10,22,13,46,11.30
2017,10,22,13,47,11.40
2017,10,22,13,48,11.50
2017,10,22,13,49,11.50
2017,10,22,13,50,11.60
2017,10,22,13,51,11.60
2017,10,22,13,52,11.60
2017,10,22,13,53,11.70
2017,10,22,13,54,11.70
2017,10,22,13,55,11.80
2017,10,22,13,56,11.80
2017,10,22,13,57,11.80
2017,10,22,13,58,11.80
2017,10,22,13,59,11.80
2017,10,22,14,00,11.80
2017,10,22,14,01,11.80
2017,10,22,14,02,11.80
2017,10,22,14,03,11.80
2017,10,22,14,04,11.80
2017,10,22,14,05,11.80
2017,10,22,14,06,11.80
2017,10,22,14,07,11.80
2017,10,22,14,08,11.80
2017,10,22,14,09,11.80
2017,10,22,14,10,11.80
2017,10,22,14,11,11.80
2017,10,22,14,12,11.80
2017,10,22,14,13,11.80
2017,10,22,14,14,11.80
2017,10,22,14,15,11.80
2017,10,22,14,16,11.80
2017,10,22,14,17,11.80
2017,10,22,14,18,11.80
2017,10,22,14,19,11.80
2017,10,22,14,20,11.80
2017,10,22,14,21,11.80
2017,10,22,14,22,11.80
2017,10,22,14,23,11.80
2017,10,22,14,24,11.80
2017,10,22,14,25,11.80
2017,10,22,14,26,11.90
2017,10,22,14,27,11.90
2017,10,22,14,28,11.90
2017,10,22,14,29,12.00
2017,10,22,14,30,12.00
2017,10,22,14,31,12.00
2017,10,22,14,32,12.00
2017,10,22,14,33,12.00
2017,10,22,14,34,12.00
2017,10,22,14,35,12.00
2017,10,22,14,36,12.00
2017,10,22,14,37,11.90
2017,10,22,14,38,11.90
2017,10,22,14,39,11.90
2017,10,22,14,40,11.90
2017,10,22,14,41,11.90
2017,10,22,14,42,11.90
2017,10,22,14,43,12.00
2017,10,22,14,44,12.00
2017,10,22,14,45,12.00
2017,10,22,14,46,12.10
2017,10,22,14,47,12.10
2017,10,22,14,48,12.10
2017,10,22,14,49,12.20
2017,10,22,14,50,12.20
2017,10,22,14,51,12.20
2017,10,22,14,52,12.20
2017,10,22,14,53,12.20
2017,10,22,14,54,12.20
2017,10,22,14,55,12.10
2017,10,22,14,56,12.10
2017,10,22,14,57,12.10
2017,10,22,14,58,12.10
2017,10,22,14,59,12.00
2017,10,22,15,00,12.10
2017,10,22,15,01,12.10
2017,10,22,15,02,12.10
2017,10,22,15,03,12.20
2017,10,22,15,04,12.20
2017,10,22,15,05,12.20
2017,10,22,15,06,12.20
2017,10,22,15,07,12.20
2017,10,22,15,08,12.30
2017,10,22,15,09,12.30
2017,10,22,15,10,12.30
2017,10,22,15,11,12.30
2017,10,22,15,12,12.40
2017,10,22,15,13,12.40
2017,10,22,15,14,12.40
2017,10,22,15,15,12.40
2017,10,22,15,16,12.40
2017,10,22,15,17,12.40
2017,10,22,15,18,12.40
2017,10,22,15,19,12.50
2017,10,22,15,20,12.50
2017,10,22,15,21,12.50
2017,10,22,15,22,12.50
2017,10,22,15,23,12.50
2017,10,22,15,24,12.50
2017,10,22,15,25,12.50
2017,10,22,15,26,12.50
2017,10,22,15,27,12.50
2017,10,22,15,28,12.50
2017,10,22,15,29,12.50
2017,10,22,15,30,12.50
2017,10,22,15,31,12.40
2017,10,22,15,32,12.40
2017,10,22,15,33,12.40
2017,10,22,15,34,12.40
2017,10,22,15,35,12.40
2017,10,22,15,36,12.30
2017,10,22,15,37,12.30
2017,10,22,15,38,12.30
2017,10,22,15,39,12.30
2017,10,22,15,40,12.30
2017,10,22,15,41,12.30
2017,10,22,15,42,12.30
2017,10,22,15,43,12.30
2017,10,22,15,44,12.30
2017,10,22,15,45,12.30
2017,10,22,15,46,12.30
2017,10,22,15,47,12.20
2017,10,22,15,48,12.20
2017,10,22,15,49,12.20
2017,10,22,15,50,12.20
2017,10,22,15,51,12.20
2017,10,22,15,52,12.20
2017,10,22,15,53,12.20
2017,10,22,15,54,12.20
2017,10,22,15,55,12.20
2017,10,22,15,56,12.20
2017,10,22,15,57,12.20
2017,10,22,15,58,12.20
2017,10,22,15,59,12.30
2017,10,22,16,00,12.30
2017,10,22,16,01,12.30
2017,10,22,16,02,12.30
2017,10,22,16,03,12.30
2017,10,22,16,04,12.30
2017,10,22,16,05,12.30
2017,10,22,16,06,12.30
2017,10,22,16,07,12.40
2017,10,22,16,08,12.40
2017,10,22,16,09,12.40
2017,10,22,16,10,12.40
2017,10,22,16,11,12.40
2017,10,22,16,12,12.40
2017,10,22,16,13,12.40
2017,10,22,16,14,12.40
2017,10,22,16,15,12.40
2017,10,22,16,16,12.40
2017,10,22,16,17,12.40
2017,10,22,16,18,12.40
2017,10,22,16,19,12.40
2017,10,22,16,20,12.40
2017,10,22,16,21,12.40
2017,10,22,16,22,12.40
2017,10,22,16,23,12.40
2017,10,22,16,24,12.40
2017,10,22,16,25,12.40
2017,10,22,16,26,12.40
2017,10,22,16,27,12.40
2017,10,22,16,28,12.40
2017,10,22,16,29,12.40
2017,10,22,16,30,12.40
2017,10,22,16,31,12.30
2017,10,22,16,32,12.30
2017,10,22,16,33,12.30
2017,10,22,16,34,12.30
2017,10,22,16,35,12.30
2017,10,22,16,36,12.30
2017,10,22,16,37,12.30
2017,10,22,16,38,12.30
2017,10,22,16,39,12.30
2017,10,22,16,40,12.30
2017,10,22,16,41,12.30
2017,10,22,16,42,12.30
2017,10,22,16,43,12.30
2017,10,22,16,44,12.30
2017,10,22,16,45,12.30
2017,10,22,16,46,12.30
2017,10,22,16,47,12.30
2017,10,22,16,48,12.30
2017,10,22,16,49,12.30
2017,10,22,16,50,12.30
2017,10,22,16,51,12.30
2017,10,22,16,52,12.20
2017,10,22,16,53,12.20
2017,10,22,16,54,12.20
2017,10,22,16,55,12.20
2017,10,22,16,56,12.20
2017,10,22,16,57,12.20
2017,10,22,16,58,12.20
2017,10,22,16,59,12.20
2017,10,22,17,00,12.30
2017,10,22,17,01,12.30
2017,10,22,17,02,12.30
2017,10,22,17,03,12.30
2017,10,22,17,04,12.30
2017,10,22,17,05,12.20
2017,10,22,17,06,12.20
2017,10,22,17,07,12.20
2017,10,22,17,08,12.20
2017,10,22,17,09,12.20
2017,10,22,17,10,12.10
2017,10,22,17,11,12.10
2017,10,22,17,12,12.10
2017,10,22,17,13,12.10
2017,10,22,17,14,12.00
2017,10,22,17,15,12.00
2017,10,22,17,16,11.90
2017,10,22,17,17,11.90
2017,10,22,17,18,11.90
2017,10,22,17,19,11.80
2017,10,22,17,20,11.80
2017,10,22,17,21,11.80
2017,10,22,17,22,11.80
2017,10,22,17,23,11.70
2017,10,22,17,24,11.70
2017,10,22,17,25,11.70
2017,10,22,17,26,11.60
2017,10,22,17,27,11.60
2017,10,22,17,28,11.60
2017,10,22,17,29,11.60
2017,10,22,17,30,11.50
2017,10,22,17,31,11.50
2017,10,22,17,32,11.50
2017,10,22,17,33,11.40
2017,10,22,17,34,11.40
2017,10,22,17,35,11.40
2017,10,22,17,36,11.40
2017,10,22,17,37,11.30
2017,10,22,17,38,11.30
2017,10,22,17,39,11.30
2017,10,22,17,40,11.30
2017,10,22,17,41,11.20
2017,10,22,17,42,11.20
2017,10,22,17,43,11.20
2017,10,22,17,44,11.20
2017,10,22,17,45,11.20
2017,10,22,17,46,11.20
2017,10,22,17,47,11.10
2017,10,22,17,48,11.10